metlocid,date_time,avg_soilt0cm,std_soilt0cm,min_soilt0cm,max_soilt0cm,n_soilt0cm,avg_soilt5cm,std_soilt5cm,min_soilt5cm,max_soilt5cm,n_soilt5cm,avg_soilt10cm,std_soilt10cm,min_soilt10cm,max_soilt10cm,n_soilt10cm,n_comments
FRLM,11/1/94,-5.862142865,2.633232563,-10.07,-1.35,28,,,,,0,-5.910370403,0.328580627,-6.57,-5.53,27,0
FRLM,12/1/94,0.247132615,3.508806485,-10.64,10.36,2232,,,,,0,-2.054256273,2.202522654,-9.14,2.34,2232,0
FRLM,1/1/95,0.283835801,3.541671273,-8.82,10.23,2229,,,,,0,-0.112391207,1.42731722,-3.56,3.95,2229,0
FRLM,2/1/95,-5.889990077,4.905163469,-19.56,6.91,2016,,,,,0,-4.694002975,2.826643895,-11.07,2.27,2016,0
FRLM,3/1/95,-22.10165321,7.351860246,-36.03,-6.37,2232,,,,,0,-17.72457438,5.314710284,-26.26,-8.83,2232,0
FRLM,4/1/95,-31.62400924,7.326710116,-44.05,-12.44,2160,,,,,0,-26.91749075,3.829063373,-33.7,-17.98,2160,0
FRLM,5/1/95,-33.12090049,7.531066043,-45.97,-13.39,2232,,,,,0,-29.38159941,3.691112593,-36.38,-21.42,2232,0
FRLM,6/1/95,-32.72894905,9.03305577,-47.68,-6.89,2160,,,,,0,-30.5937546,4.217004981,-38.33,-19.98,2160,0
FRLM,7/1/95,-36.86345874,6.487017566,-45.88,-13.35,2232,,,,,0,-32.92047939,3.811655128,-38.85,-21.66,2232,0
FRLM,8/1/95,-33.20418459,9.780536577,-48.25,-7.2,2232,,,,,0,-31.006931,4.821335535,-39.59,-19.08,2232,0
FRLM,9/1/95,-32.34127777,10.38530708,-50.72,-14.71,2160,,,,,0,-31.52218518,6.172789106,-41.63,-22.91,2160,0
FRLM,10/1/95,-18.91765679,5.756757339,-34.79,-5.57,2232,,,,,0,-20.40334678,2.536796467,-26.83,-15.05,2232,0
FRLM,11/1/95,-5.559496004,6.920652152,-24.78,10.1,2381,-1.731053215,2.352139106,-6.14,3.13,902,-8.989055017,5.477716547,-20.36,-0.33,2381,0
FRLM,12/1/95,2.89155914,3.770672127,-7.97,14.66,2976,2.160534276,2.764594437,-5.59,8.57,2976,0.648921372,2.259552902,-5.47,6.08,2976,0
FRLM,1/1/96,1.808181511,4.419838134,-5.94,22.67,2975,1.586927731,2.394150916,-3.25,8.43,2975,1.0037479,1.59021676,-2.38,5.24,2975,0
FRLM,2/1/96,-3.194917376,8.732102829,-21.98,21.83,2784,-3.217306036,5.3773881,-15.57,7.86,2784,-2.992977729,4.280748682,-12.36,5.04,2784,0
FRLM,3/1/96,-17.09365256,6.993916338,-33.3,6.44,2976,-15.57150202,4.651434028,-26.61,-2.31,2976,-14.32462029,3.786475609,-23.2,-4.41,2976,0
FRLM,4/1/96,-23.49277776,7.987196765,-37.01,-5.13,2880,-21.40010068,5.431031126,-30.66,-10.32,2880,-19.90053473,4.193262466,-27.42,-12.34,2880,0
FRLM,5/1/96,-31.97227151,6.526905576,-42.99,-12.79,2976,-29.22674396,4.250092862,-36.89,-16.98,2976,-27.32587365,3.169094541,-33.2,-18.45,2976,0
FRLM,6/1/96,-33.87072222,8.507842401,-47.33,-9.69,2880,-31.82257638,5.503463115,-41.18,-17.41,2880,-30.19469445,3.970300628,-37.25,-20.14,2880,0
FRLM,7/1/96,-35.43634748,9.995493062,-47.81,-9.32,2976,-33.18153226,6.787217795,-42.36,-17.96,2976,-31.38469756,5.134965345,-39.01,-20.91,2976,0
FRLM,8/1/96,-29.18045056,9.731339194,-44.32,-1.58,2974,-29.12765969,6.576073428,-38.62,-10.15,2974,-28.71882313,4.917682597,-36.56,-14.7,2974,0
FRLM,9/1/96,-31.07080904,7.376867948,-44.84,-12.83,2880,-30.09101391,4.615506853,-39.13,-19.52,2880,-29.17312153,3.439796248,-35.85,-20.49,2880,0
FRLM,10/1/96,-19.60860214,8.121581485,-39.44,2.89,2976,-21.14472109,4.465500139,-34.29,-12.03,2976,-21.7634207,3.408698195,-31.78,-14.19,2976,0
FRLM,11/1/96,-5.317317585,7.37262698,-27.22,18.79,2878,-7.426712994,5.726966586,-22.47,4.41,2878,-9.203453788,5.013169015,-21.33,-1.12,2878,0
FRLM,12/1/96,2.655833333,4.0878052,-5.27,19.05,2976,1.793592073,2.773990673,-4.2,9.99,2976,0.479983199,2.252504182,-5.04,6.54,2976,0
FRLM,1/1/97,1.356216399,4.174960378,-7.11,15.58,2976,1.551216396,2.759861582,-3.56,9.72,2976,1.314307795,2.084611238,-2.13,6.95,2976,0
FRLM,2/1/97,-7.50762277,5.741937556,-21.08,7.78,2688,-5.995647321,4.318113366,-15.72,3.31,2688,-5.394002975,3.825179398,-13.42,2.52,2688,0
FRLM,3/1/97,-22.65781251,6.757655422,-35.97,-4.17,2976,-20.2368078,5.481463015,-30.26,-7.87,2976,-18.81357863,4.898509933,-26.87,-8.58,2976,0
FRLM,4/1/97,-32.22599655,7.262326902,-45.28,-11,2880,-29.71945829,5.625771153,-39.97,-15.66,2880,-27.99992361,4.82359157,-36.85,-17.3,2880,0
FRLM,5/1/97,-28.07781584,9.691201943,-45.33,-7.72,2976,-27.50631384,6.954171171,-40.85,-14.33,2976,-26.93701276,5.652344034,-38.19,-17.18,2976,0
FRLM,6/1/97,-27.33090628,8.916184009,-43.17,-7.95,2880,-26.48513197,6.103704394,-37.51,-13.55,2880,-25.86942016,4.958132636,-34.58,-15.33,2880,0
FRLM,7/1/97,-37.30850088,9.309409771,-49.6,-14.3,2975,-34.99131766,6.792784147,-44.83,-19.33,2975,-33.68843358,5.811526974,-42.41,-20.74,2975,0
FRLM,8/1/97,-38.63167342,10.45034337,-52.02,-15.35,2976,-37.09886758,7.697087424,-47.47,-22.08,2976,-36.11340053,6.525354989,-45.03,-23.62,2976,0
FRLM,9/1/97,-31.10738543,9.648668001,-48.17,-7.01,2880,-31.52078818,7.141788877,-44.44,-13.64,2880,-31.56184375,6.096413979,-42.56,-16.78,2880,0
FRLM,10/1/97,-13.72518146,5.652279684,-32.98,-3.66,2976,-15.32934812,3.92947168,-29.97,-8.78,2976,-16.28799393,3.391616345,-28.83,-10.58,2976,0
FRLM,11/1/97,-1.735351185,6.201921981,-22.92,13.63,2876,-3.720573712,4.844314213,-18.7,3.67,2876,-4.927670375,4.491608665,-17.66,1.28,2876,0
FRLM,12/1/97,0.356223115,4.50516782,-9.39,18.54,2976,-0.307856183,3.051460934,-7.14,6.87,2976,-1.026196236,2.450642542,-6.26,4.26,2976,0
FRLM,1/1/98,0.490386426,4.350253259,-9.17,17.28,2976,0.809801746,2.78104142,-5.55,10.19,2976,0.689217069,1.996969408,-4.19,6.54,2976,0
FRLM,2/1/98,-5.045505954,4.542131443,-18.42,6.71,2688,-4.60440104,3.86977967,-15.53,2.28,2688,-4.307064727,3.348620578,-12.68,0.85,2688,0
FRLM,3/1/98,-19.866959,5.250960231,-34.5,-6.62,2976,-19.0605242,4.453358365,-31.6,-9.13,2976,-17.80993617,3.780601154,-27.84,-8.96,2976,0
FRLM,4/1/98,-32.86609375,8.198563265,-47.25,-14.58,2880,-31.584625,7.218602623,-44.52,-16.9,2880,-29.59116319,6.126973415,-40.75,-18.79,2880,0
FRLM,5/1/98,-29.72609546,7.618257136,-43,-8.87,2976,-29.27935483,6.397147042,-41.05,-12.14,2976,-28.39384408,5.030592193,-37.9,-15.08,2976,0
FRLM,6/1/98,-23.36879515,6.380723412,-35.63,-8.43,2880,-23.32888541,5.145234089,-33.52,-11.76,2880,-23.06166667,4.132904763,-31.22,-14.24,2880,0
FRLM,7/1/98,-30.65708669,8.00775821,-44.76,-11.64,2976,-29.85719756,6.75017,-42.67,-14.38,2976,-28.8103091,5.598704317,-39.96,-16.3,2976,0
FRLM,8/1/98,-33.56552081,9.256058381,-45.49,-11.18,2976,-33.01345097,7.805711764,-43.24,-14.82,2976,-32.20300401,6.447189645,-40.82,-17.48,2976,0
FRLM,9/1/98,-36.26185418,6.975796211,-47.76,-10.3,2880,-35.65165626,5.547215633,-45.16,-15.05,2880,-34.98643749,4.403802205,-42.93,-18.56,2880,0
FRLM,10/1/98,-17.3618078,5.52093928,-31.85,-0.65,2976,-17.94683802,4.30874036,-29.45,-5.39,2976,-18.85460687,3.481956011,-27.7,-8.96,2976,0
FRLM,11/1/98,-7.420249996,5.966492137,-25.15,4.74,2880,-7.934781245,4.908955086,-22.32,-0.37,2880,-9.01026736,4.465334977,-20.94,-1.8,2880,0
FRLM,12/1/98,1.16578629,4.580726125,-9.55,17.6,2976,0.561330647,2.724322291,-6.69,7.71,2976,-0.059415322,2.345462232,-6.16,5.48,2976,0
FRLM,1/1/99,2.064610215,3.99895546,-5.32,13.38,2976,1.88921707,2.154728948,-2.4,7.52,2976,1.637812499,1.505721889,-1.02,5.33,2976,0
FRLM,2/1/99,-5.391744799,5.997621233,-19.76,9.92,2688,-3.992377229,4.394834613,-14.44,4.28,2688,-3.395342262,3.854837767,-12.24,2.99,2688,0
FRLM,3/1/99,-20.54411626,7.227789071,-35,-3.87,2976,-18.17112566,5.284975408,-29.68,-8.12,2976,-16.82328293,4.543377321,-26.47,-8.53,2976,0
FRLM,4/1/99,-31.57773264,7.476618954,-42.59,-12.8,2880,-28.83221526,5.547495946,-37.44,-15.48,2880,-26.95419793,4.559443903,-34.08,-16.4,2880,0
FRLM,5/1/99,-36.36376684,8.054174867,-49.02,-15.12,2976,-34.17906249,5.378058388,-43.66,-21.66,2976,-32.62938844,4.055757429,-40.27,-23.73,2976,0
FRLM,6/1/99,-29.93047916,7.226645597,-41.66,-8.3,2880,-29.02382987,4.837087855,-37.1,-15.07,2880,-28.3600139,3.753849002,-34.65,-17.82,2880,0
FRLM,7/1/99,-28.13203293,9.541590127,-43.79,-8.85,2976,-27.33291331,6.3077004,-38.69,-14.52,2976,-26.86949933,4.938398828,-36.31,-17.15,2976,0
FRLM,8/1/99,-38.27732192,9.865414655,-50.12,-13.07,2976,-35.85293681,7.017049844,-45.08,-19.12,2976,-34.52412301,5.871650522,-42.77,-21.27,2976,0
FRLM,9/1/99,-27.52995835,8.903041872,-48.7,-4.18,2880,-28.2693403,6.605123071,-44.74,-13.43,2880,-28.51348958,5.604421622,-42.61,-17.33,2880,0
FRLM,10/1/99,-18.19947918,8.242902569,-36.72,0.41,2976,-19.5912668,6.021567143,-32.05,-8.26,2976,-20.40067206,5.179580098,-30.41,-11.74,2976,0
FRLM,11/1/99,-4.800729163,5.296079012,-21.49,9.95,2880,-6.420267361,3.962425614,-17.89,1.25,2880,-7.593517373,3.551785866,-17.14,-1.43,2880,0
FRLM,12/1/99,1.44935484,4.400785381,-6.49,15.59,2976,0.135218415,2.243486967,-5.5,5.8,2976,-0.624717742,1.755724253,-5.58,3.16,2976,0
FRLM,1/1/00,1.030897179,4.427545032,-8.83,16.69,2976,0.727886423,2.305099644,-5,5.97,2976,0.32906922,1.398303139,-3.43,3.42,2976,0
FRLM,2/1/00,-6.480047171,5.275115103,-19.04,10.05,2756,-5.411084903,3.727420423,-13.42,4.14,2756,-4.918679251,3.009136775,-10.54,2.48,2756,28
FRLM,3/1/00,-17.05033602,6.390905388,-31.97,-3.42,2976,-15.33712365,4.725201526,-27.13,-5.75,2976,-14.10036962,3.79895355,-23.24,-5.91,2976,0
FRLM,4/1/00,-24.73749997,9.322314937,-39.53,-3.8,1624,-22.14550491,7.299819742,-33.79,-9.54,1624,-20.11809261,5.844864742,-29.66,-11.19,1620,1261
FRLM,5/1/00,,,,,0,,,,,0,,,,,0,2976
FRLM,6/1/00,,,,,0,,,,,0,,,,,0,2880
FRLM,7/1/00,-38.64767089,6.490703038,-48.96,-26.44,863,-34.85358053,5.073933186,-43.48,-26.52,863,-32.02144842,4.088248647,-39.27,-25.55,863,2113
FRLM,8/1/00,-32.6094019,10.82737915,-48.9,-9.08,2976,-31.71860547,7.549873986,-43.67,-15.27,2976,-30.77980848,5.64196019,-40.04,-18.29,2976,0
FRLM,9/1/00,-31.25167014,10.14260628,-45.27,-7.07,2880,-30.70298262,7.093871111,-40.63,-14.21,2880,-30.23414931,5.248462126,-37.43,-18.44,2880,0
FRLM,10/1/00,-20.71794356,6.649091264,-34.74,-2.69,2976,-21.20361222,4.090084486,-30.18,-11.83,2976,-21.68080981,2.84498551,-27.67,-14.91,2976,0
FRLM,11/1/00,-4.149058374,6.007566701,-25.26,13.8,2878,-6.050378734,5.240282683,-22.27,6.22,2878,-8.1371091,4.739341564,-21.09,2.04,2878,2
FRLM,12/1/00,1.156555784,4.563550198,-5.65,14.89,2976,0.016696909,2.364799753,-4.73,5.56,2976,-0.745510753,1.781778945,-4.85,3.32,2976,0
FRLM,1/1/01,-0.93413978,4.720354549,-9.46,15.97,2976,-1.251589382,2.609025665,-6.31,4.55,2976,-1.495672043,1.763495751,-5.24,2.4,2976,0
FRLM,2/1/01,-4.470014886,5.349031493,-17.73,12.19,2688,-4.017991073,3.299549596,-12.77,3.71,2688,-3.815290175,2.394306195,-10.41,1.31,2688,0
FRLM,3/1/01,-21.43064515,6.678002575,-33.05,-2.07,2976,-18.8010719,4.667843819,-27.26,-5.91,2976,-17.15560147,3.836032497,-23.67,-6.87,2976,0
FRLM,4/1/01,-28.2736493,7.14217435,-41.75,-13.3,2880,-25.86021182,5.039483511,-35.39,-15.58,2880,-23.96246529,3.844645282,-31.23,-16.84,2880,0
FRLM,5/1/01,-29.6643649,10.82261078,-46.09,-5.53,2976,-27.84047714,7.827673699,-40.38,-10.83,2976,-26.40200604,5.977521004,-36.4,-13.8,2976,0
FRLM,6/1/01,-28.19827081,8.864008764,-43.6,-6.68,2880,-27.42032638,6.126240811,-39.01,-13.93,2880,-26.67593056,4.572449679,-35.69,-18.11,2880,0
FRLM,7/1/01,-30.92251681,8.522399608,-47.2,-9.69,2976,-29.62903229,5.706710348,-41.26,-15.87,2976,-28.54943213,4.102493688,-37.12,-18.64,2976,0
FRLM,8/1/01,-42.8539685,6.082462728,-52.15,-24.2,2976,-40.08628029,4.20891393,-47.01,-30.06,2976,-37.84505046,3.098733705,-43.23,-31.63,2976,0
FRLM,9/1/01,-33.73602779,9.387893247,-47.3,-10.43,2880,-33.23460071,6.578201191,-43.27,-19.73,2880,-32.84758682,4.875939236,-40.48,-23.67,2880,0
FRLM,10/1/01,-17.90457325,8.195031938,-38.6,-3.1,2976,-18.99080307,5.402307756,-34.14,-9.93,2976,-20.00024867,4.167563202,-31.64,-12.69,2976,0
FRLM,11/1/01,-3.858048612,7.070853881,-22.12,17.82,2880,-6.627065975,4.469485141,-19.13,2.59,2880,-8.150951393,3.886109555,-18.39,-0.41,2880,0
FRLM,12/1/01,5.169926066,6.418632773,-6.53,23.55,2976,1.997046372,3.274177005,-4.97,9.82,2976,0.51452285,2.608060312,-5.22,6.45,2976,0
FRLM,1/1/02,4.557970426,5.874755696,-7.23,23.58,2976,2.569432124,2.635789597,-2.58,9.13,2976,1.948185484,1.595435465,-0.76,5.85,2976,0
FRLM,2/1/02,-4.18520834,6.231544366,-18.88,12.38,2688,-3.894880953,3.799933065,-13.26,2.97,2688,-3.367998509,3.222710302,-10.88,2.09,2688,0
FRLM,3/1/02,-16.81978832,6.383889926,-30.54,2.48,2976,-14.89782259,4.42331496,-23.7,-2.96,2976,-13.74531587,3.747360954,-20.51,-4.23,2976,0
FRLM,4/1/02,-28.456934,8.829766442,-39.87,-8.17,2880,-26.10196182,5.982442197,-34.31,-12.72,2880,-24.5117639,4.551760751,-30.89,-14.2,2880,0
FRLM,5/1/02,-24.3494456,8.642107678,-41.78,-5.31,2976,-22.79648523,6.357536101,-35.51,-9.31,2976,-21.79892138,5.139380386,-32.09,-11.36,2976,0
FRLM,6/1/02,-36.86131598,8.248046862,-49.28,-10.27,2880,-34.11195138,5.566235492,-43.35,-16.93,2880,-32.33439235,4.198203252,-39.73,-19.99,2880,0
FRLM,7/1/02,-39.96871981,8.560560174,-47.94,-14.6,2976,-37.28853158,6.184990037,-43.93,-20.62,2976,-35.53323591,4.980862426,-41.27,-22.8,2976,0
FRLM,8/1/02,-40.9603596,8.799727452,-51.49,-12.9,2976,-39.23308471,6.129728303,-46.73,-20.73,2976,-37.95863911,4.707842647,-43.74,-24.53,2976,0
FRLM,9/1/02,-29.65324304,6.724735239,-40.11,-8.83,2880,-29.50053472,4.527418662,-37.38,-15.22,2880,-29.3066979,3.484207098,-35.48,-18.58,2880,0
FRLM,10/1/02,-20.14912634,6.959786596,-34.27,-4.3,2976,-21.34504368,4.703825559,-30.17,-10.35,2976,-22.03854167,3.854571432,-28.69,-12.96,2976,0
FRLM,11/1/02,-7.342923614,4.943187374,-20.61,7.16,2880,-9.623177083,2.902897933,-16.75,-2.04,2880,-10.8684757,2.501524152,-16.14,-4.42,2880,0
FRLM,12/1/02,1.595228497,5.538337679,-10.04,15.72,2976,-1.141323924,2.924734445,-9.04,4.87,2976,-2.190561155,2.441103781,-8.99,2.16,2976,0
FRLM,1/1/03,3.512930109,5.430474769,-7.62,22.62,2976,1.601229842,2.403399663,-4.02,9.6,2976,1.026458333,1.528799129,-2.84,6.88,2976,0
FRLM,2/1/03,-4.179278276,5.465202875,-16.47,12.29,2688,-4.190829608,3.1219432,-11.7,4.28,2688,-3.828456105,2.554617175,-9.57,1.75,2688,0
FRLM,3/1/03,-18.9473051,5.887062857,-32.2,-7.08,2976,-17.11323254,4.289770544,-26.48,-7.57,2976,-15.85325604,3.650548177,-23.2,-6.85,2976,0
FRLM,4/1/03,-29.69559373,6.676787095,-38.35,-6.88,2880,-27.29323264,5.084826378,-34.32,-12.57,2880,-25.51568403,4.165967627,-31.26,-15.08,2880,0
FRLM,5/1/03,-24.85526546,9.434155403,-39.36,-1.93,2976,-24.36248993,7.064334045,-35.18,-7.43,2976,-23.94336359,5.750018563,-32.35,-10.42,2976,0
FRLM,6/1/03,-32.35584028,5.969311047,-43.91,-16.68,2880,-30.33545484,4.248435576,-39.41,-20.98,2880,-28.97932639,3.425910202,-36.68,-22.08,2880,0
FRLM,7/1/03,-30.24466733,8.567362009,-44.41,-13.43,2976,-29.40494958,5.990721628,-39.51,-18.67,2976,-28.86042003,4.767482167,-37.17,-20.35,2976,0
FRLM,8/1/03,-37.57366262,6.474850569,-46.61,-15.44,2976,-35.3371035,5.105887138,-42.75,-19.75,2976,-33.99716402,4.413146692,-40.46,-21.4,2976,0
FRLM,9/1/03,-28.43817013,9.969398693,-47.04,-10.98,2880,-28.80067359,7.740815878,-43.64,-15.04,2880,-28.86556948,6.6303879,-41.51,-17.36,2880,0
FRLM,10/1/03,-15.00858196,6.358847446,-33.38,2.55,2976,-16.41344759,4.206022059,-29.68,-6.6,2976,-17.12901208,3.526946256,-28.06,-9.01,2976,0
FRLM,11/1/03,-5.282079865,5.776508917,-20.09,9.45,2880,-7.509079862,3.276530002,-16.43,0.3,2880,-8.297395834,2.819244476,-15.52,-1.86,2880,0
FRLM,12/1/03,3.612207661,5.678790265,-6.81,23.45,2976,1.091838037,2.850574492,-5.68,9.2,2976,0.173847447,2.347799401,-5.92,7.03,2976,0
FRLM,1/1/04,3.0425672,6.17835965,-8,23.55,2976,1.725181451,2.826136364,-4.19,11.18,2976,1.696061828,2.044525632,-2.86,8.78,2976,0
FRLM,2/1/04,-5.233979885,5.831375341,-17.72,9.53,2784,-4.844084053,3.3711162,-12.94,1.65,2784,-4.300348419,2.907581584,-11.07,1.29,2784,0
FRLM,3/1/04,-23.10075606,6.65007231,-33.93,-2.67,2976,-20.2732258,5.145633449,-29.28,-7.04,2976,-18.69949262,4.614905991,-26.54,-7.7,2976,0
FRLM,4/1/04,-30.63001391,4.86108099,-39.59,-14.66,2880,-28.4847153,3.410850704,-34.94,-18.24,2880,-26.98003471,2.757894545,-32.14,-19.28,2880,0
FRLM,5/1/04,-33.43100806,9.834951419,-45.68,-6.46,2976,-31.1996707,7.100018696,-40.71,-12.44,2976,-29.8567507,5.780166331,-37.99,-15.18,2976,0
FRLM,6/1/04,-28.58433677,9.55595386,-44.59,-8.27,2880,-27.69914236,6.752685752,-40.55,-13.44,2880,-27.19096874,5.584819238,-37.97,-15.82,2880,0
FRLM,7/1/04,-43.1524631,7.211649264,-52.28,-16.17,2976,-40.14607528,4.999416494,-47.06,-25.15,2976,-38.64940523,4.149541267,-44.63,-26.71,2976,0
FRLM,8/1/04,-38.77353157,8.241623633,-51.05,-11.38,2976,-37.52024527,5.537107286,-46.56,-19.37,2976,-36.87012096,4.512748781,-44.55,-22.85,2976,0
FRLM,9/1/04,-33.27699306,4.914642117,-42.69,-18.67,2880,-32.69064236,3.063676319,-39.36,-23.92,2880,-32.36337499,2.48145503,-38.04,-25.8,2880,0
FRLM,10/1/04,-19.613834,9.75097568,-43.65,-2.71,2976,-21.08841062,7.435911408,-39.37,-10.98,2976,-21.84175066,6.689686413,-37.68,-13.49,2976,0
FRLM,11/1/04,-2.904416661,7.011784954,-20.66,17.08,2880,-5.533788195,5.055845856,-17.86,3.07,2880,-6.712815978,4.719893583,-17.32,0.22,2880,0
FRLM,12/1/04,4.224455645,5.265065835,-5.83,21.76,2976,2.108138441,2.416672906,-2.81,10.38,2976,1.174872313,1.583216593,-2.93,6.5,2976,0
FRLM,1/1/05,2.495843418,4.586573579,-8.8,20.72,2976,1.930036964,2.462960516,-4.3,9.87,2976,1.805944221,1.748556664,-2.6,7.96,2976,0
FRLM,2/1/05,-5.371242565,5.986925564,-20.1,11.3,2688,-4.568749999,3.998566682,-14.7,3.5,2688,-3.985342263,3.482357176,-12.5,2.3,2688,0
FRLM,3/1/05,-20.85087365,6.156639311,-32.3,-5.7,2976,-18.5234207,4.312112231,-27.3,-8,2976,-17.2127352,3.769162239,-24.8,-8.1,2976,0
FRLM,4/1/05,-32.37447915,7.247469833,-43.8,-14.5,2880,-29.44211804,5.902073371,-38.7,-17.5,2880,-27.59937499,5.211336356,-35.6,-17.8,2880,0
FRLM,5/1/05,-28.17540323,8.469832176,-43.2,-8.5,2976,-27.09905912,6.014919745,-37.8,-13.5,2976,-26.46512098,4.913111915,-35.1,-15.7,2976,0
FRLM,6/1/05,-32.96048612,9.363088203,-46.5,-5.7,2880,-31.64628472,6.256964143,-41.2,-12.3,2880,-30.74079859,4.824041643,-38.3,-15.7,2880,0
FRLM,7/1/05,-34.69596771,10.53323209,-48.8,-4.9,2976,-33.0050067,7.884697538,-43.6,-11,2976,-32.10188171,6.643390106,-40.9,-13.9,2976,0
FRLM,8/1/05,-34.99969756,9.077812794,-48.8,-10.4,2976,-33.37523523,6.146332784,-43.8,-17.9,2976,-32.58847444,5.023646096,-41.4,-21.1,2976,0
FRLM,9/1/05,-33.2979514,8.368999896,-46.3,-8.2,2880,-32.48701387,5.427226527,-41.3,-18.6,2880,-32.13249996,4.414141644,-39.5,-21.4,2880,0
FRLM,10/1/05,-16.25413307,8.74381817,-34.2,4.3,2976,-17.76108872,6.527045581,-29.9,-5.4,2976,-18.55729168,5.791208685,-28.5,-7.7,2976,0
FRLM,11/1/05,-4.384965276,5.439273484,-18.2,10.8,2880,-6.080104169,3.246855965,-14.8,1.1,2880,-6.918298614,2.737876155,-14.1,-1.1,2880,0
FRLM,12/1/05,4.014852153,4.910476664,-6.8,23.6,2976,2.062331991,2.499541298,-5.6,7.4,2976,1.041196236,1.830653032,-5.3,4.8,2976,0
FRLM,1/1/06,2.675803095,5.188037163,-6.3,20.6,2976,1.8640625,2.59507374,-3.1,9.1,2976,1.555961021,1.585166284,-1.31,5.9,2976,0
FRLM,2/1/06,-4.889832591,5.070510996,-15.42,8.33,2688,-4.194397324,3.061386126,-10.29,2.6,2688,-3.637749256,2.275696314,-8.02,2.41,2688,0
FRLM,3/1/06,-19.53651881,6.167569285,-32.93,-3.99,2976,-17.35493279,4.854118988,-27.9,-7.6,2976,-15.60073254,4.158523741,-24.53,-8.02,2976,0
FRLM,4/1/06,-35.13846877,5.896408437,-46.66,-17.63,2880,-32.23815972,4.491487651,-41.61,-20.24,2880,-29.75736458,3.684828092,-37.52,-21.26,2880,0
FRLM,5/1/06,-36.70913304,9.227988542,-48.02,-7.11,2976,-34.49369624,6.746568277,-43.02,-12.51,2976,-32.59599466,5.108841468,-39.07,-15.92,2976,0
FRLM,6/1/06,-28.61327431,11.22995424,-47.37,-7.2,2880,-27.71958332,8.313087466,-42.32,-14.15,2880,-27.00135765,6.260995678,-38.33,-16.67,2880,0
FRLM,7/1/06,-43.10148862,7.56847482,-50.71,-17.4,2976,-40.60931118,5.538721829,-46.55,-22.8,2976,-38.46866937,4.21095454,-43.41,-25.7,2976,0
FRLM,8/1/06,-26.48029234,7.9650541,-40.23,-8.55,2976,-26.79015455,5.469692916,-36.37,-14.06,2976,-26.96123654,3.827889916,-33.63,-18.06,2976,0
FRLM,9/1/06,-27.32206599,10.12913791,-44.76,-6.38,2880,-27.08015968,7.70755031,-40.26,-11.03,2880,-26.85997922,6.10232944,-37.09,-14.31,2880,0
FRLM,10/1/06,-19.70382055,7.073187477,-35.57,-2.85,2976,-20.06496641,4.469676517,-31.76,-10.37,2976,-20.3997816,3.237509736,-29.23,-13.39,2976,0
FRLM,11/1/06,-4.93791319,7.641491679,-24.29,15.01,2880,-6.400256947,5.889012143,-20.77,3.86,2880,-7.826600696,5.203553506,-19.4,0.75,2880,0
FRLM,12/1/06,1.218750001,5.325589999,-8.79,17.33,2976,-0.135833334,2.624050595,-6.52,6.72,2976,-0.732614247,1.781908585,-5.17,3.75,2976,0
FRLM,1/1/07,4.420000006,5.098129883,-4.77,20.18,2976,3.080796373,2.466038505,-1.83,8.3,2976,2.233397178,1.499120791,-0.64,5.71,2976,0
FRLM,2/1/07,-6.747094494,5.350816432,-20.25,5.66,2688,-5.376692707,4.347012259,-15.14,4.22,2688,-4.377340028,3.758595428,-12.72,3.21,2688,0
FRLM,3/1/07,-19.35649193,6.419841152,-33.11,-2.28,2976,-17.25807796,4.859591939,-28.15,-5.8,2976,-15.65874999,3.986104245,-24.83,-6.6,2976,0
FRLM,4/1/07,-29.69798609,8.461130011,-42.2,-8.72,2880,-27.52904165,6.228944792,-37.36,-11.95,2880,-25.64356945,4.581890288,-33.24,-14.12,2880,0
FRLM,5/1/07,-28.34475134,9.125090797,-42.33,-7.75,2976,-27.08530915,6.557140465,-37.74,-13.79,2976,-25.89793012,4.784132521,-34.07,-16.65,2976,0
FRLM,6/1/07,-26.92732291,9.366189174,-45.93,-5.05,2880,-25.75823612,6.853999055,-40.83,-10.28,2880,-24.80595486,5.128692478,-36.74,-13.7,2880,0
FRLM,7/1/07,-29.82993953,9.593720254,-45.71,-7.6,2976,-28.75976141,6.974393201,-41.08,-12.12,2976,-27.83992271,5.092544126,-37.22,-15.34,2976,0
FRLM,8/1/07,-30.07440864,8.183199698,-44.23,-6.83,2976,-29.16393815,5.838611836,-39.62,-14.62,2976,-28.36241264,4.295083752,-36.23,-18.2,2976,0
FRLM,9/1/07,-24.94145136,7.10013804,-40.93,-7.86,2880,-24.89754164,5.136854612,-36.65,-13.24,2880,-24.90563544,3.880305006,-33.53,-16.54,2880,0
FRLM,10/1/07,-19.44324597,5.947296588,-38.08,-5.02,2976,-19.50779907,4.047234614,-32.7,-11.09,2976,-19.70006384,3.01937838,-29.18,-14.06,2976,0
FRLM,11/1/07,-6.880277782,8.041088869,-26.38,13.07,2880,-8.631756936,6.614333009,-23.73,2.21,2880,-10.07738195,6.041567656,-22.16,-0.87,2880,0
FRLM,12/1/07,3.627751265,6.251643009,-8.78,21.82,2975,1.861243696,3.795029958,-6.72,11.05,2975,0.872534454,3.127859328,-6.11,7.77,2975,0
FRLM,1/1/08,3.218679439,5.009779352,-8.28,17.75,2976,2.336129032,2.649675903,-4.34,9.14,2976,1.994075942,1.803608472,-2.18,7.15,2976,0
FRLM,2/1/08,-5.670251442,5.633154887,-18.3,10.41,2784,-5.606117103,3.855532389,-14.8,4.41,2784,-5.073397988,2.792038837,-10.98,1.53,2784,0
FRLM,3/1/08,-17.78696908,7.437453403,-31.89,0.12,2976,-16.89724798,6.594173326,-29.91,-4.4,2976,-15.06860551,5.294857709,-25.46,-6.41,2976,0
FRLM,4/1/08,-25.31132638,4.988659315,-34.35,-12.73,2880,-24.63170139,4.371306541,-32.77,-13.39,2880,-22.94007291,3.039290612,-29.06,-15.57,2880,0
FRLM,5/1/08,-31.68598789,6.908879159,-43.28,-10.95,2976,-30.547668,6.067645224,-40.68,-12.21,2976,-28.29548052,4.715648818,-36.39,-14.84,2976,0
FRLM,6/1/08,-23.43572222,6.097814678,-36.89,-8.7,2880,-23.04060766,5.582257495,-35.54,-9.53,2880,-22.51363544,4.310947866,-32.73,-12.25,2880,0
FRLM,7/1/08,-35.82294021,6.802194176,-44.71,-18.88,2976,-34.73768485,6.068023109,-42.74,-19.51,2976,-32.62517137,4.35642582,-38.76,-21.51,2976,0
FRLM,8/1/08,-42.23409609,5.572789603,-50.63,-22.44,2976,-40.86882728,5.13545869,-48.6,-23.06,2976,-38.33609545,4.240160955,-44.72,-24.93,2976,0
FRLM,9/1/08,-24.04665974,8.468032353,-45.14,-8.51,2880,-24.2385521,7.628555631,-43.82,-12.32,2880,-24.9214514,6.435046119,-41.28,-16.09,2880,0
FRLM,10/1/08,-18.00876345,5.50804128,-32.58,-2.15,2976,-17.98867273,4.8308758,-30.13,-6.52,2976,-18.62579636,3.634115303,-26.99,-10.74,2976,0
FRLM,11/1/08,-5.309635418,7.157214544,-22.01,13.72,2880,-6.785954862,5.018250207,-19.58,6.19,2880,-8.473406255,3.717583947,-17.55,0.56,2880,0
FRLM,12/1/08,5.308366943,6.785352629,-6.74,22.34,2976,3.427620966,4.180109053,-5.16,14.27,2976,1.258820565,2.793285032,-4.66,8.28,2976,0
FRLM,1/1/09,3.948437492,5.73845164,-7.3,20.92,2976,3.119096102,3.745120651,-5.07,13.8,2976,2.022570563,2.057266998,-2.79,7.73,2976,0